Hourly Data Report for October 05, 2017

All times are specified in Local Standard Time (LST). Add 1 hour to adjust for Daylight Saving Time where and when it is observed.

SYDNEY A
NOVA SCOTIA

46°09'41.000" N
60°02'53.000" W
61.90 m
8205701
71707
YQY

Download Data

Hourly Data (October 2017)
Hourly Data Report for October 5, 2017
Temp Definition
°C
Dew Point Temp Definition
°C
Rel Hum Definition
%
Wind Dir Definition
10's deg

Wind Spd Definition
km/h
Visibility Definition
km
Stn Press Definition
kPa
Hmdx Definition


Wind Chill Definition


Weather Definition


TIME
00:00 Legend Double Dagger 14.2 13.0 92 22 16 24.1 100.45     LegendNANA
01:00 Legend Double Dagger 14.2 12.7 91 22 17 24.1 100.44     LegendNANA
02:00 Legend Double Dagger 14.0 12.4 90 21 19 24.1 100.33     Clear
03:00 Legend Double Dagger 13.2 11.4 88 22 14 24.1 100.30     LegendNANA
04:00 Legend Double Dagger 12.9 11.1 88 23 17 24.1 100.27     LegendNANA
05:00 Legend Double Dagger 12.8 11.1 89 23 27 24.1 100.19     Mainly Clear
06:00 Legend Double Dagger 12.4 11.0 91 22 24 16.1 100.13     LegendNANA
07:00 Legend Double Dagger 13.4 11.7 89 22 23 16.1 100.11     LegendNANA
08:00 Legend Double Dagger 14.7 12.5 86 23 26 24.1 100.15     Mostly Cloudy
09:00 Legend Double Dagger 17.1 13.6 80 25 25 24.1 100.19     LegendNANA
10:00 Legend Double Dagger 17.5 14.0 79 27 22 16.1 100.21     LegendNANA
11:00 Legend Double Dagger 17.3 14.2 82 27 22 24.1 100.23     Cloudy
12:00 Legend Double Dagger 17.3 14.4 83 28 23 24.1 100.21     LegendNANA
13:00 Legend Double Dagger 17.1 13.2 78 30 27 24.1 100.23     LegendNANA
14:00 Legend Double Dagger 18.8 11.3 61 28 24 24.1 100.29     Mostly Cloudy
15:00 Legend Double Dagger 17.7 10.9 64 29 26 24.1 100.31     LegendNANA
16:00 Legend Double Dagger 16.5 9.8 64 29 18 24.1 100.35     LegendNANA
17:00 Legend Double Dagger 14.4 8.6 68 30 10 24.1 100.40     Mostly Cloudy
18:00 Legend Double Dagger 11.1 8.2 82 27 8 24.1 100.44     LegendNANA
19:00 Legend Double Dagger 10.2 8.0 86 22 9 24.1 100.48     LegendNANA
20:00 Legend Double Dagger 8.1 6.6 90 26 5 24.1 100.53     Mostly Cloudy
21:00 Legend Double Dagger 7.9 6.9 93 24 4 24.1 100.59     LegendNANA
22:00 Legend Double Dagger 8.7 7.3 91 23 7 24.1 100.57     LegendNANA
23:00 Legend Double Dagger 6.9 6.5 97 22 7 24.1 100.55     Mainly Clear

Notes on Data Quality.

Legend

  • E = Estimated
  • M = Missing
  • NA = Not Available
  • ‡ = Partner data that is not subject to review by the National Climate Archives
Date modified: